CHH473 ZBAA-RJBB

Flight info

Callsign CHH473
Flight time N/A
Altitude 35100
Route MUGLO2G MUGLO W34 VAPGU/K0822S1130 W100 ORAVA W201 UNSEK A326 DONVO G597 AGAVO/N0445F370 Y644 EGOBA Y697 LANAT Y597 MIHOU Y361 SAEKI/N0450F360 Y36 ATMUG
Aircraft A21N/M-SDE2E3FGHIRWXY/LB1

Departure

Time 2026-05-01 12:30
Airport Beijing Capital International Airport (ZBAA)

Arrival

Time N/A
Airport Kansai International Airport (RJBB)
Time Latitude Longitude Altitude Speed Heading
2026-05-01 11:58 40.07504 116.58736 120 ft 0 kts 38°
2026-05-01 12:17 40.07503 116.58735 125 ft 2 kts 38°
2026-05-01 12:18 40.07483 116.58715 126 ft 0 kts 38°
2026-05-01 12:18 40.07462 116.58693 126 ft 0 kts 38°
2026-05-01 12:18 40.07445 116.58675 124 ft 0 kts 44°
2026-05-01 12:18 40.07428 116.58649 124 ft 0 kts 57°
2026-05-01 12:19 40.07415 116.58618 124 ft 0 kts 70°
2026-05-01 12:19 40.07408 116.58585 124 ft 0 kts 81°
2026-05-01 12:19 40.07405 116.58559 125 ft 0 kts 83°
2026-05-01 12:22 40.07406 116.58566 129 ft 2 kts 83°
2026-05-01 12:22 40.07408 116.58596 129 ft 5 kts 88°
2026-05-01 12:22 40.07408 116.58656 129 ft 8 kts 90°
2026-05-01 12:22 40.07413 116.58739 128 ft 10 kts 83°
2026-05-01 12:23 40.07422 116.58841 131 ft 12 kts 83°
2026-05-01 12:23 40.07432 116.58948 127 ft 11 kts 83°
2026-05-01 12:23 40.07442 116.59052 129 ft 12 kts 83°
2026-05-01 12:23 40.07453 116.59171 129 ft 14 kts 83°
2026-05-01 12:24 40.07474 116.59304 125 ft 16 kts 75°
2026-05-01 12:24 40.07496 116.59405 126 ft 11 kts 36°
2026-05-01 12:24 40.07577 116.59406 127 ft 13 kts 352°
2026-05-01 12:24 40.07672 116.59391 126 ft 15 kts 353°
2026-05-01 12:25 40.07778 116.59375 127 ft 16 kts 353°
2026-05-01 12:25 40.08050 116.59333 129 ft 23 kts 353°
2026-05-01 12:25 40.08221 116.59305 128 ft 26 kts 353°
2026-05-01 12:26 40.08402 116.59277 126 ft 27 kts 353°
2026-05-01 12:26 40.08770 116.59218 127 ft 20 kts 353°
2026-05-01 12:26 40.08867 116.59204 126 ft 9 kts 354°
2026-05-01 12:27 40.08929 116.59196 128 ft 10 kts 354°
2026-05-01 12:27 40.08982 116.59321 130 ft 0 kts 98°
2026-05-01 12:28 40.08970 116.59370 127 ft 5 kts 120°
2026-05-01 12:29 40.08944 116.59414 130 ft 7 kts 129°
2026-05-01 12:29 40.08910 116.59470 126 ft 9 kts 139°
2026-05-01 12:29 40.08641 116.59530 127 ft 62 kts 173°
2026-05-01 12:30 40.06945 116.59799 126 ft 174 kts 172°
2026-05-01 12:30 40.05726 116.59984 654 ft 172 kts 172°
2026-05-01 12:30 40.04550 116.60161 1416 ft 168 kts 170°
2026-05-01 12:31 40.03392 116.60352 2076 ft 171 kts 170°
2026-05-01 12:31 40.02144 116.60545 2545 ft 190 kts 171°
2026-05-01 12:31 40.00753 116.60741 3090 ft 216 kts 172°
2026-05-01 12:31 39.99174 116.60992 3568 ft 241 kts 171°
2026-05-01 12:32 39.97454 116.61268 4210 ft 254 kts 172°
2026-05-01 12:32 39.93887 116.61830 5914 ft 266 kts 174°
2026-05-01 12:32 39.92014 116.62121 6646 ft 275 kts 175°
2026-05-01 12:33 39.90088 116.62418 7450 ft 281 kts 175°
2026-05-01 12:33 39.88139 116.62722 8333 ft 283 kts 176°
2026-05-01 12:33 39.86169 116.63028 9237 ft 287 kts 176°
2026-05-01 12:33 39.84179 116.63337 10085 ft 292 kts 176°
2026-05-01 12:34 39.82087 116.63655 10471 ft 314 kts 176°
2026-05-01 12:34 39.79842 116.63992 10780 ft 336 kts 176°
2026-05-01 12:34 39.77446 116.64355 11078 ft 357 kts 176°
2026-05-01 12:34 39.74921 116.64739 11456 ft 372 kts 176°
2026-05-01 12:35 39.72325 116.65140 12117 ft 378 kts 175°
2026-05-01 12:35 39.69699 116.65547 12840 ft 382 kts 175°
2026-05-01 12:35 39.67052 116.65954 13538 ft 385 kts 176°
2026-05-01 12:35 39.64385 116.66509 14152 ft 391 kts 171°
2026-05-01 12:36 39.61701 116.67209 14725 ft 396 kts 171°
2026-05-01 12:36 39.58990 116.67925 15317 ft 399 kts 171°
2026-05-01 12:36 39.56287 116.68641 15866 ft 403 kts 171°
2026-05-01 12:36 39.53580 116.69717 16381 ft 412 kts 159°
2026-05-01 12:37 39.51011 116.71420 16929 ft 417 kts 154°
2026-05-01 12:37 39.48464 116.73266 17457 ft 422 kts 153°
2026-05-01 12:37 39.45893 116.75135 17974 ft 425 kts 153°
2026-05-01 12:37 39.43288 116.77012 18439 ft 430 kts 154°
2026-05-01 12:38 39.40662 116.78891 18874 ft 433 kts 154°
2026-05-01 12:38 39.38013 116.80779 19333 ft 437 kts 154°
2026-05-01 12:38 39.35333 116.82686 19770 ft 440 kts 154°
2026-05-01 12:38 39.32568 116.84393 20206 ft 441 kts 161°
2026-05-01 12:39 39.29735 116.85838 20658 ft 444 kts 162°
2026-05-01 12:39 39.26843 116.87289 21114 ft 448 kts 162°
2026-05-01 12:39 39.23923 116.88753 21548 ft 452 kts 162°
2026-05-01 12:39 39.20992 116.90297 21998 ft 458 kts 158°
2026-05-01 12:40 39.18228 116.92409 22457 ft 467 kts 146°
2026-05-01 12:40 39.15825 116.95274 22904 ft 474 kts 133°
2026-05-01 12:40 39.13937 116.98782 23325 ft 480 kts 119°
2026-05-01 12:40 39.12682 117.02779 23720 ft 484 kts 105°
2026-05-01 12:41 39.12109 117.07059 24078 ft 487 kts 94°
2026-05-01 12:41 39.11907 117.11430 24395 ft 492 kts 92°
2026-05-01 12:41 39.11736 117.15845 24688 ft 496 kts 92°
2026-05-01 12:41 39.11660 117.17685 24798 ft 497 kts 92°
2026-05-01 12:42 39.11487 117.21560 25054 ft 500 kts 92°
2026-05-01 12:42 39.11272 117.26052 25322 ft 504 kts 92°
2026-05-01 12:42 39.11046 117.30563 25584 ft 507 kts 93°
2026-05-01 12:42 39.10812 117.35104 25845 ft 510 kts 93°
2026-05-01 12:43 39.10579 117.39620 26087 ft 513 kts 93°
2026-05-01 12:43 39.10343 117.44208 26335 ft 516 kts 93°
2026-05-01 12:43 39.10099 117.48839 26571 ft 519 kts 93°
2026-05-01 12:43 39.09849 117.53489 26831 ft 521 kts 93°
2026-05-01 12:44 39.09595 117.58133 27115 ft 522 kts 93°
2026-05-01 12:44 39.09338 117.62804 27403 ft 523 kts 93°
2026-05-01 12:44 39.08819 117.72149 27953 ft 524 kts 93°
2026-05-01 12:45 39.08288 117.81531 28485 ft 526 kts 93°
2026-05-01 12:45 39.08022 117.86224 28771 ft 526 kts 93°
2026-05-01 12:45 39.07754 117.90930 29035 ft 527 kts 93°
2026-05-01 12:46 39.07484 117.95644 29312 ft 528 kts 94°
2026-05-01 12:46 39.07212 118.00350 29585 ft 529 kts 94°
2026-05-01 12:46 39.06794 118.05004 29830 ft 530 kts 100°
2026-05-01 12:46 39.06072 118.09651 30113 ft 531 kts 102°
2026-05-01 12:47 39.05324 118.14311 30386 ft 532 kts 102°
2026-05-01 12:47 39.04573 118.18983 30667 ft 533 kts 102°
2026-05-01 12:47 39.03824 118.23667 30954 ft 535 kts 102°
2026-05-01 12:47 39.03079 118.28345 31232 ft 536 kts 102°
2026-05-01 12:48 39.02329 118.33046 31502 ft 537 kts 102°
2026-05-01 12:48 39.01831 118.36160 31694 ft 537 kts 102°
2026-05-01 12:48 39.01075 118.40877 31957 ft 539 kts 102°
2026-05-01 12:48 39.00313 118.45607 32215 ft 540 kts 102°
2026-05-01 12:49 38.99547 118.50346 32496 ft 541 kts 102°
2026-05-01 12:49 38.98782 118.55076 32770 ft 542 kts 102°
2026-05-01 12:49 38.98011 118.59834 33031 ft 543 kts 102°
2026-05-01 12:49 38.97238 118.64593 33290 ft 544 kts 102°
2026-05-01 12:50 38.96463 118.69343 33540 ft 545 kts 102°
2026-05-01 12:50 38.95682 118.74120 33758 ft 546 kts 102°
2026-05-01 12:50 38.94896 118.78904 33983 ft 547 kts 102°
2026-05-01 12:50 38.94109 118.83693 34202 ft 547 kts 102°
2026-05-01 12:51 38.93330 118.88420 34396 ft 548 kts 102°
2026-05-01 12:51 38.92538 118.93215 34600 ft 548 kts 102°
2026-05-01 12:51 38.90951 119.02803 34964 ft 550 kts 102°
2026-05-01 12:52 38.90144 119.07618 35073 ft 552 kts 102°
2026-05-01 12:52 38.87724 119.22032 35039 ft 550 kts 102°
2026-05-01 12:53 38.85291 119.36447 35033 ft 552 kts 102°
2026-05-01 12:54 38.83651 119.46073 35034 ft 552 kts 102°
2026-05-01 12:54 38.81176 119.60494 35043 ft 553 kts 102°
2026-05-01 12:55 38.78682 119.74939 35033 ft 553 kts 102°
2026-05-01 12:56 38.77023 119.84495 35041 ft 553 kts 101°
2026-05-01 12:56 38.75428 119.94180 35036 ft 554 kts 101°
2026-05-01 12:57 38.73043 120.03507 35024 ft 551 kts 122°
2026-05-01 12:57 38.68591 120.11411 35040 ft 545 kts 133°
2026-05-01 12:57 38.66254 120.15234 35035 ft 547 kts 132°
2026-05-01 12:58 38.61941 120.23306 35020 ft 554 kts 118°
2026-05-01 12:58 38.60539 120.27907 35031 ft 556 kts 105°
2026-05-01 12:59 38.59346 120.34763 35024 ft 555 kts 99°
2026-05-01 12:59 38.57084 120.49269 35026 ft 555 kts 100°
2026-05-01 13:00 38.54715 120.63746 35033 ft 555 kts 100°
2026-05-01 13:01 38.52369 120.78215 35024 ft 555 kts 100°
2026-05-01 13:02 38.49996 120.92714 35017 ft 556 kts 100°
2026-05-01 13:07 38.32893 121.95927 34995 ft 554 kts 100°
2026-05-01 13:08 38.31237 122.05517 35001 ft 554 kts 100°
2026-05-01 13:08 38.29593 122.15092 35004 ft 554 kts 100°
2026-05-01 13:09 38.27950 122.24683 34996 ft 554 kts 99°
2026-05-01 13:09 38.26568 122.34210 35024 ft 553 kts 97°
2026-05-01 13:10 38.24634 122.43675 34992 ft 556 kts 114°
2026-05-01 13:10 38.22811 122.47826 34990 ft 554 kts 128°
2026-05-01 13:10 38.20347 122.51559 34980 ft 548 kts 139°
2026-05-01 13:11 38.14945 122.58374 35004 ft 548 kts 140°
2026-05-01 13:11 38.09554 122.65212 35000 ft 549 kts 139°
2026-05-01 13:12 38.04216 122.72139 35003 ft 549 kts 139°
2026-05-01 13:12 37.98876 122.79086 34999 ft 549 kts 139°
2026-05-01 13:13 37.93540 122.86009 34999 ft 549 kts 139°
2026-05-01 13:13 37.88192 122.92914 35006 ft 550 kts 139°
2026-05-01 13:14 37.82836 122.99811 34998 ft 549 kts 139°
2026-05-01 13:14 37.77470 123.06711 35007 ft 550 kts 139°
2026-05-01 13:15 37.72146 123.13548 35008 ft 549 kts 139°
2026-05-01 13:15 37.66770 123.20429 35012 ft 550 kts 139°
2026-05-01 13:16 37.61387 123.27309 35016 ft 550 kts 139°
2026-05-01 13:16 37.56103 123.34293 35007 ft 553 kts 131°
2026-05-01 13:17 37.46841 123.49819 35016 ft 554 kts 129°
2026-05-01 13:18 37.39924 123.61385 35016 ft 554 kts 129°
2026-05-01 13:18 37.35290 123.69117 35026 ft 554 kts 129°
2026-05-01 13:19 37.30636 123.76857 35025 ft 555 kts 129°
2026-05-01 13:20 37.23651 123.88446 35012 ft 555 kts 129°
2026-05-01 13:20 37.19206 123.96371 35007 ft 556 kts 118°
2026-05-01 13:21 37.16972 124.05526 35014 ft 546 kts 90°
2026-05-01 13:21 37.16929 124.10244 35027 ft 537 kts 80°
2026-05-01 13:21 37.17352 124.19535 35023 ft 537 kts 79°
2026-05-01 13:22 37.17702 124.28901 35025 ft 537 kts 81°
2026-05-01 13:22 37.17926 124.38264 35020 ft 537 kts 81°
2026-05-01 13:23 37.18141 124.47643 35046 ft 537 kts 81°
2026-05-01 13:23 37.18356 124.56997 35023 ft 536 kts 81°
2026-05-01 13:24 37.18568 124.66357 35022 ft 536 kts 81°
2026-05-01 13:25 37.18855 124.80314 35018 ft 535 kts 81°
2026-05-01 13:25 37.19049 124.89651 35011 ft 535 kts 81°
2026-05-01 13:26 37.19229 124.98974 35019 ft 535 kts 81°
2026-05-01 13:26 37.19405 125.08303 35033 ft 533 kts 81°
2026-05-01 13:27 37.19568 125.17609 35016 ft 533 kts 81°
2026-05-01 13:27 37.19807 125.31546 35018 ft 531 kts 81°
2026-05-01 13:28 37.20026 125.45388 35010 ft 532 kts 81°
2026-05-01 13:31 37.20630 125.91666 34997 ft 528 kts 81°
2026-05-01 13:32 37.20858 126.14626 34993 ft 528 kts 82°
2026-05-01 13:33 37.21052 126.37628 34982 ft 527 kts 82°
2026-05-01 13:34 37.21177 126.55790 34964 ft 526 kts 82°
2026-05-01 13:35 37.21245 126.69404 34970 ft 526 kts 82°
2026-05-01 13:36 37.21299 126.83142 34946 ft 524 kts 82°
2026-05-01 13:36 37.21795 126.95161 34937 ft 507 kts 68°
2026-05-01 13:37 37.22800 126.99323 34960 ft 490 kts 56°
2026-05-01 13:37 37.24318 127.03063 34955 ft 472 kts 45°
2026-05-01 13:37 37.26119 127.06151 34947 ft 458 kts 37°
2026-05-01 13:37 37.28232 127.09119 34949 ft 454 kts 35°
2026-05-01 13:38 37.34607 127.17934 34922 ft 455 kts 36°
2026-05-01 13:39 37.38813 127.23871 34934 ft 455 kts 36°
2026-05-01 13:39 37.43014 127.29819 34930 ft 454 kts 36°
2026-05-01 13:40 37.47075 127.35821 34911 ft 466 kts 43°
2026-05-01 13:40 37.48707 127.39437 34898 ft 486 kts 55°
2026-05-01 13:40 37.49760 127.43566 34907 ft 503 kts 67°
2026-05-01 13:41 37.51090 127.52257 34916 ft 505 kts 70°
2026-05-01 13:41 37.52400 127.60914 34889 ft 502 kts 69°
2026-05-01 13:42 37.53771 127.69515 34878 ft 500 kts 69°
2026-05-01 13:42 37.55140 127.78126 34875 ft 501 kts 69°
2026-05-01 13:43 37.56497 127.86726 34877 ft 499 kts 70°
2026-05-01 13:43 37.57830 127.95258 34862 ft 498 kts 70°
2026-05-01 13:44 37.59164 128.03815 34859 ft 497 kts 70°
2026-05-01 13:44 37.60497 128.12370 34858 ft 497 kts 70°
2026-05-01 13:45 37.61827 128.20927 34870 ft 497 kts 71°
2026-05-01 13:45 37.63139 128.29445 34852 ft 494 kts 71°
2026-05-01 13:46 37.64443 128.37971 34861 ft 494 kts 71°
2026-05-01 13:46 37.65747 128.46482 34853 ft 494 kts 71°
2026-05-01 13:47 37.67037 128.55006 34866 ft 495 kts 72°
2026-05-01 13:47 37.68314 128.63512 34853 ft 493 kts 72°
2026-05-01 13:48 37.68939 128.72179 34852 ft 503 kts 88°
2026-05-01 13:48 37.68438 128.76573 34853 ft 509 kts 99°
2026-05-01 13:48 37.67330 128.80836 34849 ft 513 kts 111°
2026-05-01 13:49 37.63800 128.88693 34871 ft 516 kts 121°
2026-05-01 13:49 37.60051 128.96324 34868 ft 513 kts 120°
2026-05-01 13:50 37.56327 129.04058 34866 ft 513 kts 120°
2026-05-01 13:50 37.52654 129.11692 34867 ft 513 kts 120°
2026-05-01 13:51 37.48959 129.19339 34873 ft 509 kts 120°
2026-05-01 13:51 37.45262 129.26963 34868 ft 510 kts 120°
2026-05-01 13:52 37.41568 129.34568 34879 ft 510 kts 120°
2026-05-01 13:52 37.37876 129.42171 34884 ft 510 kts 120°
2026-05-01 13:53 37.34182 129.49767 34878 ft 509 kts 121°
2026-05-01 13:53 37.28630 129.61159 34880 ft 509 kts 121°
2026-05-01 13:54 37.24917 129.68739 34882 ft 509 kts 121°
2026-05-01 13:54 37.21205 129.76298 34879 ft 509 kts 121°
2026-05-01 13:55 37.17492 129.83850 34881 ft 509 kts 121°
2026-05-01 13:55 37.13803 129.91337 34878 ft 508 kts 121°
2026-05-01 13:56 37.10084 129.98862 34876 ft 508 kts 121°
2026-05-01 13:56 37.06351 130.06390 34891 ft 508 kts 121°
2026-05-01 13:57 37.02629 130.13895 34868 ft 508 kts 121°
2026-05-01 13:57 36.98890 130.21409 34878 ft 509 kts 121°
2026-05-01 13:58 36.95135 130.28941 34879 ft 510 kts 121°
2026-05-01 13:58 36.91377 130.36453 34873 ft 510 kts 121°
2026-05-01 13:59 36.87618 130.43960 34878 ft 510 kts 121°
2026-05-01 13:59 36.83853 130.51460 34878 ft 510 kts 120°
2026-05-01 14:00 36.80081 130.58957 34869 ft 510 kts 120°
2026-05-01 14:00 36.76298 130.66465 34872 ft 510 kts 120°
2026-05-01 14:01 36.72515 130.73952 34868 ft 510 kts 121°
2026-05-01 14:01 36.68727 130.81431 34866 ft 510 kts 121°
2026-05-01 14:02 36.64934 130.88902 34865 ft 510 kts 121°
2026-05-01 14:02 36.61146 130.96324 34871 ft 511 kts 121°
2026-05-01 14:03 36.57335 131.03784 34865 ft 511 kts 121°
2026-05-01 14:03 36.53527 131.11244 34861 ft 511 kts 121°
2026-05-01 14:04 36.49715 131.18697 34860 ft 511 kts 121°
2026-05-01 14:04 36.46545 131.24897 34858 ft 511 kts 121°